Weather History for Ephrata, WA

Change the Weather History Date:

Thursday, February 7, 2013

  Actual Average Record
Temperature  
Mean Temperature 40 °F 32 °F  
Max Temperature 48 °F 40 °F 56 °F (1953)
Min Temperature 32 °F 25 °F 1 °F (1985)
Degree Days  
Heating Degree Days 25 33  
Month to date heating degree days 217 232  
Since 1 July heating degree days 3653 3940  
Cooling Degree Days 0 0  
Month to date cooling degree days 0 0  
Year to date cooling degree days 0 0  
Moisture  
Dew Point 29 °F    
Average Humidity 67    
Maximum Humidity 89    
Minimum Humidity 45    
Precipitation  
Precipitation 0.00 in 0.03 in 0.46 in (2002)
Month to date precipitation T 0.18  
Year to date precipitation 0.19 1.09  
Sea Level Pressure  
Sea Level Pressure 29.96 in    
Wind  
Wind Speed 7 mph (NNW)    
Max Wind Speed 14 mph    
Max Gust Speed 16 mph    
Visibility 10 miles    
Events      
T = Trace of Precipitation, MM = Missing Value Source: NWS Daily Summary

Daily Weather History Graph

Daily Weather History Graph

Search for Another Location

Airport:

Trip Planner

Search our weather history database for the weather conditions in past years. The results will help you decide how hot, cold, wet, or windy it might be!

Date:

Astronomy

Feb. 07, 2013 Rise Set
Actual Time 7:15 AM PST 5:10 PM PST
Civil Twilight 6:42 AM PST 5:42 PM PST
Nautical Twilight 6:06 AM PST 6:18 PM PST
Astronomical Twilight 5:31 AM PST 6:54 PM PST
Moon 5:05 AM PST (2/7) 2:34 PM PST (2/7)
Length of Visible Light 10h 59m
Length of Day
9h 55m
Waning Crescent, 8% of the Moon is Illuminated
Feb 7
Waning Crescent
Feb 9
New
Feb 17
First Quarter
Feb 25
Full
Mar 4
Last Quarter

Hourly Weather History & Observations

Time (PST) Temp. Windchill Dew Point Humidity Pressure Visibility Wind Dir Wind Speed Gust Speed Precip Events Conditions
12:53 AM 36.0 °F 29.6 °F 30.9 °F 82% 29.91 in 10.0 mi North 8.1 mph - N/A   Clear
1:53 AM 36.0 °F 29.6 °F 30.9 °F 82% 29.90 in 10.0 mi NNE 8.1 mph - N/A   Overcast
2:53 AM 36.0 °F 28.5 °F 30.9 °F 82% 29.88 in 10.0 mi North 10.4 mph - N/A   Overcast
3:53 AM 35.1 °F 28.6 °F 30.9 °F 85% 29.88 in 10.0 mi NNE 8.1 mph - N/A   Overcast
4:53 AM 34.0 °F 28.0 °F 30.0 °F 85% 29.89 in 10.0 mi North 6.9 mph - N/A   Mostly Cloudy
5:53 AM 32.0 °F 27.5 °F 28.9 °F 88% 29.89 in 10.0 mi North 4.6 mph - N/A   Clear
6:53 AM 33.1 °F 28.7 °F 28.9 °F 85% 29.91 in 10.0 mi NW 4.6 mph - N/A   Partly Cloudy
7:53 AM 35.1 °F 28.6 °F 28.9 °F 78% 29.93 in 10.0 mi WNW 8.1 mph - N/A   Overcast
8:53 AM 35.1 °F 32.2 °F 30.0 °F 82% 29.94 in 10.0 mi ENE 3.5 mph - N/A   Partly Cloudy
9:53 AM 34.0 °F 29.8 °F 30.9 °F 89% 29.95 in 10.0 mi SSE 4.6 mph - N/A   Clear
10:53 AM 41.0 °F 35.2 °F 32.0 °F 70% 29.96 in 10.0 mi SW 9.2 mph - N/A   Clear
11:53 AM 44.1 °F 39.5 °F 32.0 °F 63% 29.95 in 10.0 mi SW 8.1 mph - N/A   Clear
12:53 PM 48.0 °F - 30.9 °F 52% 29.94 in 10.0 mi West 4.6 mph - N/A   Clear
1:53 PM 46.9 °F - 28.9 °F 50% 29.94 in 10.0 mi NNW 8.1 mph - N/A   Clear
2:53 PM 46.9 °F - 27.0 °F 46% 29.95 in 10.0 mi Variable 4.6 mph - N/A   Clear
3:53 PM 45.0 °F 41.2 °F 28.9 °F 53% 29.96 in 10.0 mi NE 6.9 mph - N/A   Clear
4:53 PM 41.0 °F 37.1 °F 30.0 °F 65% 29.98 in 10.0 mi NNE 5.8 mph - N/A   Clear
5:53 PM 35.1 °F 30.1 °F 28.9 °F 78% 30.00 in 10.0 mi WSW 5.8 mph - N/A   Clear
6:53 PM 35.1 °F 29.3 °F 27.0 °F 72% 30.02 in 10.0 mi North 6.9 mph - N/A   Clear
7:53 PM 33.1 °F 30.0 °F 28.0 °F 82% 30.03 in 10.0 mi NNE 3.5 mph - N/A   Mostly Cloudy
8:53 PM 34.0 °F 28.0 °F 28.0 °F 79% 30.04 in 10.0 mi NW 6.9 mph - N/A   Overcast
9:53 PM 35.1 °F 27.9 °F 28.0 °F 76% 30.06 in 10.0 mi NW 9.2 mph - N/A   Clear
10:53 PM 35.1 °F 26.9 °F 27.0 °F 72% 30.06 in 10.0 mi NW 11.5 mph - N/A   Clear
11:53 PM 33.1 °F 27.7 °F 26.1 °F 75% 30.07 in 10.0 mi NW 5.8 mph - N/A   Partly Cloudy